Time,TemperatureF,DewpointF,PressureIn,WindDirection,WindDirectionDegrees,WindSpeedMPH,WindSpeedGustMPH,Humidity,HourlyPrecipIn,Conditions,Clouds,dailyrainin,SoftwareType,DateUTC
2013-02-01 00:02:00,55.0,-99.9,30.34,West,270,10.0,16.0,-999,-99.99,,,-99.99,,2013-02-01 06:02:00,
2013-02-01 00:12:00,55.0,-99.9,30.34,West,270,12.0,17.0,-999,-99.99,,,-99.99,,2013-02-01 06:12:00,
2013-02-01 00:22:00,55.0,-99.9,30.34,West,274,13.0,21.0,-999,-99.99,,,-99.99,,2013-02-01 06:22:00,
2013-02-01 00:32:00,55.0,-99.9,30.34,West,265,11.0,17.0,-999,-99.99,,,-99.99,,2013-02-01 06:32:00,
2013-02-01 00:42:00,55.0,-99.9,30.34,West,265,10.0,13.0,-999,-99.99,,,-99.99,,2013-02-01 06:42:00,
2013-02-01 00:52:00,55.0,-99.9,30.33,West,268,9.0,14.0,-999,-99.99,,,-99.99,,2013-02-01 06:52:00,
2013-02-01 01:02:00,55.0,-99.9,30.34,West,267,8.0,13.0,-999,-99.99,,,-99.99,,2013-02-01 07:02:00,
2013-02-01 01:12:00,55.0,-99.9,30.34,West,268,9.0,13.0,-999,-99.99,,,-99.99,,2013-02-01 07:12:00,
2013-02-01 01:22:00,55.0,-99.9,30.34,West,272,8.0,14.0,-999,-99.99,,,-99.99,,2013-02-01 07:22:00,
2013-02-01 01:32:00,55.0,-99.9,30.34,West,279,10.0,18.0,-999,-99.99,,,-99.99,,2013-02-01 07:32:00,
2013-02-01 01:42:00,55.0,-99.9,30.35,NW,304,14.0,20.0,-999,-99.99,,,-99.99,,2013-02-01 07:42:00,
2013-02-01 01:52:00,55.0,-99.9,30.35,NW,310,19.0,23.0,-999,-99.99,,,-99.99,,2013-02-01 07:52:00,
2013-02-01 02:01:00,54.0,-99.9,30.35,NW,307,20.0,22.0,-999,-99.99,,,-99.99,,2013-02-01 08:01:00,
2013-02-01 02:11:00,54.0,-99.9,30.36,WNW,303,18.0,22.0,-999,-99.99,,,-99.99,,2013-02-01 08:11:00,
2013-02-01 02:22:00,54.0,-99.9,30.35,WNW,297,15.0,21.0,-999,-99.99,,,-99.99,,2013-02-01 08:22:00,
2013-02-01 02:32:00,54.0,-99.9,30.36,WNW,296,15.0,21.0,-999,-99.99,,,-99.99,,2013-02-01 08:32:00,
2013-02-01 02:42:00,54.0,-99.9,30.35,WNW,291,15.0,20.0,-999,-99.99,,,-99.99,,2013-02-01 08:42:00,
2013-02-01 02:52:00,54.0,-99.9,30.35,WNW,291,13.0,21.0,-999,-99.99,,,-99.99,,2013-02-01 08:52:00,
2013-02-01 03:02:00,54.0,-99.9,30.35,WNW,296,17.0,23.0,-999,-99.99,,,-99.99,,2013-02-01 09:02:00,
2013-02-01 03:11:00,54.0,-99.9,30.35,WNW,297,20.0,24.0,-999,-99.99,,,-99.99,,2013-02-01 09:11:00,
2013-02-01 03:22:00,54.0,-99.9,30.35,WNW,294,18.0,22.0,-999,-99.99,,,-99.99,,2013-02-01 09:22:00,
2013-02-01 03:32:00,54.0,-99.9,30.35,NW,307,23.0,26.0,-999,-99.99,,,-99.99,,2013-02-01 09:32:00,
2013-02-01 03:42:00,53.0,-99.9,30.35,NW,305,21.0,22.0,-999,-99.99,,,-99.99,,2013-02-01 09:42:00,
2013-02-01 03:52:00,53.0,-99.9,30.35,NW,307,17.0,20.0,-999,-99.99,,,-99.99,,2013-02-01 09:52:00,
2013-02-01 04:01:00,53.0,-99.9,30.34,NW,307,14.0,16.0,-999,-99.99,,,-99.99,,2013-02-01 10:01:00,
2013-02-01 04:11:00,53.0,-99.9,30.33,NW,307,14.0,16.0,-999,-99.99,,,-99.99,,2013-02-01 10:11:00,
2013-02-01 04:21:00,53.0,-99.9,30.33,NW,309,13.0,15.0,-999,-99.99,,,-99.99,,2013-02-01 10:21:00,
2013-02-01 04:32:00,53.0,-99.9,30.34,NW,310,14.0,16.0,-999,-99.99,,,-99.99,,2013-02-01 10:32:00,
2013-02-01 04:43:00,53.0,-99.9,30.34,NW,308,13.0,16.0,-999,-99.99,,,-99.99,,2013-02-01 10:43:00,
2013-02-01 04:53:00,52.0,-99.9,30.33,NW,306,12.0,13.0,-999,-99.99,,,-99.99,,2013-02-01 10:53:00,
2013-02-01 05:02:00,52.0,-99.9,30.34,NW,311,13.0,14.0,-999,-99.99,,,-99.99,,2013-02-01 11:02:00,
2013-02-01 05:12:00,52.0,-99.9,30.34,NW,307,10.0,11.0,-999,-99.99,,,-99.99,,2013-02-01 11:12:00,
2013-02-01 05:22:00,52.0,-99.9,30.34,NW,305,9.0,11.0,-999,-99.99,,,-99.99,,2013-02-01 11:22:00,
2013-02-01 05:32:00,53.0,-99.9,30.34,NW,311,12.0,15.0,-999,-99.99,,,-99.99,,2013-02-01 11:32:00,
2013-02-01 05:42:00,53.0,-99.9,30.35,NW,308,13.0,16.0,-999,-99.99,,,-99.99,,2013-02-01 11:42:00,
2013-02-01 05:53:00,53.0,-99.9,30.36,NW,309,13.0,15.0,-999,-99.99,,,-99.99,,2013-02-01 11:53:00,
2013-02-01 06:03:00,52.0,-99.9,30.37,NW,312,14.0,17.0,-999,-99.99,,,-99.99,,2013-02-01 12:03:00,
2013-02-01 06:12:00,52.0,-99.9,30.37,NW,312,13.0,16.0,-999,-99.99,,,-99.99,,2013-02-01 12:12:00,
2013-02-01 06:23:00,52.0,-99.9,30.37,NW,311,13.0,15.0,-999,-99.99,,,-99.99,,2013-02-01 12:23:00,
2013-02-01 06:32:00,52.0,-99.9,30.37,NW,308,11.0,14.0,-999,-99.99,,,-99.99,,2013-02-01 12:32:00,
2013-02-01 06:42:00,52.0,-99.9,30.37,NW,310,11.0,14.0,-999,-99.99,,,-99.99,,2013-02-01 12:42:00,
2013-02-01 06:52:00,52.0,-99.9,30.38,NW,309,15.0,17.0,-999,-99.99,,,-99.99,,2013-02-01 12:52:00,
2013-02-01 07:02:00,52.0,-99.9,30.38,NW,311,14.0,17.0,-999,-99.99,,,-99.99,,2013-02-01 13:02:00,
2013-02-01 07:12:00,53.0,-99.9,30.39,NW,316,16.0,17.0,-999,-99.99,,,-99.99,,2013-02-01 13:12:00,
2013-02-01 07:22:00,52.0,-99.9,30.40,NW,322,13.0,16.0,-999,-99.99,,,-99.99,,2013-02-01 13:22:00,
2013-02-01 07:33:00,52.0,-99.9,30.40,NW,319,14.0,17.0,-999,-99.99,,,-99.99,,2013-02-01 13:33:00,
2013-02-01 07:43:00,52.0,-99.9,30.40,NW,324,15.0,18.0,-999,-99.99,,,-99.99,,2013-02-01 13:43:00,
2013-02-01 07:53:00,52.0,-99.9,30.41,NW,324,15.0,17.0,-999,-99.99,,,-99.99,,2013-02-01 13:53:00,
2013-02-01 08:03:00,51.0,-99.9,30.41,NW,322,15.0,19.0,-999,-99.99,,,-99.99,,2013-02-01 14:03:00,
2013-02-01 08:12:00,51.0,-99.9,30.41,NW,326,17.0,19.0,-999,-99.99,,,-99.99,,2013-02-01 14:12:00,
2013-02-01 08:22:00,51.0,-99.9,30.42,NW,321,14.0,17.0,-999,-99.99,,,-99.99,,2013-02-01 14:22:00,
2013-02-01 08:33:00,50.0,-99.9,30.42,NNW,329,13.0,16.0,-999,-99.99,,,-99.99,,2013-02-01 14:33:00,
2013-02-01 08:42:00,50.0,-99.9,30.42,NNW,327,13.0,14.0,-999,-99.99,,,-99.99,,2013-02-01 14:42:00,
2013-02-01 08:53:00,50.0,-99.9,30.42,NNW,334,13.0,15.0,-999,-99.99,,,-99.99,,2013-02-01 14:53:00,
2013-02-01 09:03:00,50.0,-99.9,30.41,NNW,337,15.0,17.0,-999,-99.99,,,-99.99,,2013-02-01 15:03:00,
2013-02-01 09:12:00,50.0,-99.9,30.42,NNW,344,15.0,17.0,-999,-99.99,,,-99.99,,2013-02-01 15:12:00,
2013-02-01 09:22:00,49.0,-99.9,30.42,NNW,341,14.0,17.0,-999,-99.99,,,-99.99,,2013-02-01 15:22:00,
2013-02-01 09:33:00,49.0,-99.9,30.42,NNW,345,14.0,17.0,-999,-99.99,,,-99.99,,2013-02-01 15:33:00,
2013-02-01 09:42:00,49.0,-99.9,30.42,NNW,346,15.0,18.0,-999,-99.99,,,-99.99,,2013-02-01 15:42:00,
2013-02-01 09:52:00,50.0,-99.9,30.41,North,1,15.0,19.0,-999,-99.99,,,-99.99,,2013-02-01 15:52:00,
2013-02-01 10:03:00,50.0,-99.9,30.41,North,3,14.0,18.0,-999,-99.99,,,-99.99,,2013-02-01 16:03:00,
2013-02-01 10:12:00,50.0,-99.9,30.41,North,5,16.0,19.0,-999,-99.99,,,-99.99,,2013-02-01 16:12:00,
2013-02-01 10:22:00,50.0,-99.9,30.41,North,7,17.0,19.0,-999,-99.99,,,-99.99,,2013-02-01 16:22:00,
2013-02-01 10:33:00,50.0,-99.9,30.41,North,7,19.0,21.0,-999,-99.99,,,-99.99,,2013-02-01 16:33:00,
2013-02-01 10:43:00,50.0,-99.9,30.41,North,6,19.0,21.0,-999,-99.99,,,-99.99,,2013-02-01 16:43:00,
2013-02-01 10:53:00,50.0,-99.9,30.41,North,4,19.0,21.0,-999,-99.99,,,-99.99,,2013-02-01 16:53:00,
2013-02-01 11:03:00,50.0,-99.9,30.41,North,6,19.0,23.0,-999,-99.99,,,-99.99,,2013-02-01 17:03:00,
2013-02-01 11:12:00,50.0,-99.9,30.42,North,9,21.0,25.0,-999,-99.99,,,-99.99,,2013-02-01 17:12:00,
2013-02-01 11:22:00,50.0,-99.9,30.41,North,6,22.0,25.0,-999,-99.99,,,-99.99,,2013-02-01 17:22:00,
2013-02-01 11:32:00,50.0,-99.9,30.41,North,11,19.0,23.0,-999,-99.99,,,-99.99,,2013-02-01 17:32:00,
2013-02-01 11:42:00,50.0,-99.9,30.41,North,6,21.0,23.0,-999,-99.99,,,-99.99,,2013-02-01 17:42:00,
2013-02-01 11:53:00,50.0,-99.9,30.40,North,6,21.0,23.0,-999,-99.99,,,-99.99,,2013-02-01 17:53:00,
2013-02-01 12:03:00,51.0,-99.9,30.40,North,10,21.0,24.0,-999,-99.99,,,-99.99,,2013-02-01 18:03:00,
2013-02-01 12:13:00,51.0,-99.9,30.40,North,10,18.0,24.0,-999,-99.99,,,-99.99,,2013-02-01 18:13:00,
2013-02-01 12:23:00,51.0,-99.9,30.40,North,11,18.0,22.0,-999,-99.99,,,-99.99,,2013-02-01 18:23:00,
2013-02-01 12:33:00,52.0,-99.9,30.39,NNE,13,19.0,23.0,-999,-99.99,,,-99.99,,2013-02-01 18:33:00,
2013-02-01 12:42:00,52.0,-99.9,30.39,NNE,13,20.0,23.0,-999,-99.99,,,-99.99,,2013-02-01 18:42:00,
2013-02-01 12:53:00,52.0,-99.9,30.38,NNE,16,20.0,23.0,-999,-99.99,,,-99.99,,2013-02-01 18:53:00,
2013-02-01 13:03:00,52.0,-99.9,30.38,NNE,16,20.0,22.0,-999,-99.99,,,-99.99,,2013-02-01 19:03:00,
2013-02-01 13:12:00,52.0,-99.9,30.38,NNE,17,19.0,22.0,-999,-99.99,,,-99.99,,2013-02-01 19:12:00,
2013-02-01 13:22:00,53.0,-99.9,30.37,NNE,20,17.0,20.0,-999,-99.99,,,-99.99,,2013-02-01 19:22:00,
2013-02-01 13:33:00,53.0,-99.9,30.37,NNE,28,17.0,18.0,-999,-99.99,,,-99.99,,2013-02-01 19:33:00,
2013-02-01 13:42:00,53.0,-99.9,30.36,NNE,23,17.0,19.0,-999,-99.99,,,-99.99,,2013-02-01 19:42:00,
2013-02-01 13:52:00,53.0,-99.9,30.36,NNE,19,17.0,19.0,-999,-99.99,,,-99.99,,2013-02-01 19:52:00,
2013-02-01 14:02:00,54.0,-99.9,30.37,NNE,16,17.0,20.0,-999,-99.99,,,-99.99,,2013-02-01 20:02:00,
2013-02-01 14:12:00,54.0,-99.9,30.36,NNE,21,18.0,20.0,-999,-99.99,,,-99.99,,2013-02-01 20:12:00,
2013-02-01 14:22:00,55.0,-99.9,30.36,NNE,18,17.0,19.0,-999,-99.99,,,-99.99,,2013-02-01 20:22:00,
2013-02-01 14:32:00,55.0,-99.9,30.36,NNE,17,15.0,17.0,-999,-99.99,,,-99.99,,2013-02-01 20:32:00,
2013-02-01 14:42:00,55.0,-99.9,30.35,NNE,17,15.0,17.0,-999,-99.99,,,-99.99,,2013-02-01 20:42:00,
2013-02-01 14:52:00,55.0,-99.9,30.35,NNE,20,15.0,17.0,-999,-99.99,,,-99.99,,2013-02-01 20:52:00,
2013-02-01 15:02:00,56.0,-99.9,30.35,NNE,23,16.0,17.0,-999,-99.99,,,-99.99,,2013-02-01 21:02:00,
2013-02-01 15:12:00,55.0,-99.9,30.35,NNE,18,14.0,17.0,-999,-99.99,,,-99.99,,2013-02-01 21:12:00,
2013-02-01 15:22:00,56.0,-99.9,30.35,North,9,16.0,18.0,-999,-99.99,,,-99.99,,2013-02-01 21:22:00,
2013-02-01 15:32:00,56.0,-99.9,30.35,NNE,16,16.0,19.0,-999,-99.99,,,-99.99,,2013-02-01 21:32:00,
2013-02-01 15:42:00,56.0,-99.9,30.35,NNE,21,17.0,18.0,-999,-99.99,,,-99.99,,2013-02-01 21:42:00,
2013-02-01 15:53:00,56.0,-99.9,30.35,NNE,27,16.0,18.0,-999,-99.99,,,-99.99,,2013-02-01 21:53:00,
2013-02-01 16:03:00,56.0,-99.9,30.35,NNE,29,15.0,17.0,-999,-99.99,,,-99.99,,2013-02-01 22:03:00,
2013-02-01 16:11:00,56.0,-99.9,30.35,NNE,29,15.0,16.0,-999,-99.99,,,-99.99,,2013-02-01 22:11:00,
2013-02-01 16:22:00,56.0,-99.9,30.35,NNE,26,14.0,15.0,-999,-99.99,,,-99.99,,2013-02-01 22:22:00,
2013-02-01 16:32:00,56.0,-99.9,30.35,NNE,27,13.0,15.0,-999,-99.99,,,-99.99,,2013-02-01 22:32:00,
2013-02-01 16:42:00,56.0,-99.9,30.35,NNE,26,13.0,15.0,-999,-99.99,,,-99.99,,2013-02-01 22:42:00,
2013-02-01 16:52:00,57.0,-99.9,30.34,NNE,19,11.0,13.0,-999,-99.99,,,-99.99,,2013-02-01 22:52:00,
2013-02-01 17:02:00,57.0,-99.9,30.35,NNE,19,10.0,12.0,-999,-99.99,,,-99.99,,2013-02-01 23:02:00,
2013-02-01 17:11:00,57.0,-99.9,30.35,NNE,19,10.0,12.0,-999,-99.99,,,-99.99,,2013-02-01 23:11:00,
2013-02-01 17:22:00,57.0,-99.9,30.35,NNE,25,10.0,12.0,-999,-99.99,,,-99.99,,2013-02-01 23:22:00,
2013-02-01 17:32:00,57.0,-99.9,30.35,NNE,19,10.0,12.0,-999,-99.99,,,-99.99,,2013-02-01 23:32:00,
2013-02-01 17:42:00,57.0,-99.9,30.35,NNE,19,10.0,11.0,-999,-99.99,,,-99.99,,2013-02-01 23:42:00,
2013-02-01 17:52:00,57.0,-99.9,30.35,NNE,22,11.0,13.0,-999,-99.99,,,-99.99,,2013-02-01 23:52:00,
2013-02-01 18:02:00,57.0,-99.9,30.35,NNE,28,12.0,14.0,-999,-99.99,,,-99.99,,2013-02-02 00:02:00,
2013-02-01 18:11:00,57.0,-99.9,30.35,NNE,25,12.0,13.0,-999,-99.99,,,-99.99,,2013-02-02 00:11:00,
2013-02-01 18:22:00,57.0,-99.9,30.35,NNE,22,11.0,13.0,-999,-99.99,,,-99.99,,2013-02-02 00:22:00,
2013-02-01 18:32:00,57.0,-99.9,30.35,NNE,30,12.0,13.0,-999,-99.99,,,-99.99,,2013-02-02 00:32:00,
2013-02-01 18:42:00,57.0,-99.9,30.35,NNE,25,11.0,13.0,-999,-99.99,,,-99.99,,2013-02-02 00:42:00,
2013-02-01 18:52:00,57.0,-99.9,30.35,NNE,22,11.0,13.0,-999,-99.99,,,-99.99,,2013-02-02 00:52:00,
2013-02-01 19:03:00,57.0,-99.9,30.35,NNE,20,12.0,13.0,-999,-99.99,,,-99.99,,2013-02-02 01:03:00,
2013-02-01 19:11:00,57.0,-99.9,30.35,NNE,20,12.0,13.0,-999,-99.99,,,-99.99,,2013-02-02 01:11:00,
2013-02-01 19:22:00,57.0,-99.9,30.36,NNE,23,13.0,15.0,-999,-99.99,,,-99.99,,2013-02-02 01:22:00,
2013-02-01 19:32:00,57.0,-99.9,30.36,NNE,26,13.0,14.0,-999,-99.99,,,-99.99,,2013-02-02 01:32:00,
2013-02-01 19:42:00,57.0,-99.9,30.36,NNE,25,13.0,15.0,-999,-99.99,,,-99.99,,2013-02-02 01:42:00,
2013-02-01 19:52:00,56.0,-99.9,30.36,NNE,30,14.0,15.0,-999,-99.99,,,-99.99,,2013-02-02 01:52:00,
2013-02-01 20:01:00,56.0,-99.9,30.36,NNE,26,13.0,16.0,-999,-99.99,,,-99.99,,2013-02-02 02:01:00,
2013-02-01 20:11:00,56.0,-99.9,30.36,NNE,32,14.0,17.0,-999,-99.99,,,-99.99,,2013-02-02 02:11:00,
2013-02-01 20:22:00,56.0,-99.9,30.36,NNE,29,14.0,16.0,-999,-99.99,,,-99.99,,2013-02-02 02:22:00,
2013-02-01 20:32:00,56.0,-99.9,30.36,NE,34,15.0,17.0,-999,-99.99,,,-99.99,,2013-02-02 02:32:00,
2013-02-01 20:42:00,56.0,-99.9,30.36,NE,34,16.0,17.0,-999,-99.99,,,-99.99,,2013-02-02 02:42:00,
2013-02-01 20:52:00,55.0,-99.9,30.37,NE,37,18.0,19.0,-999,-99.99,,,-99.99,,2013-02-02 02:52:00,
2013-02-01 21:02:00,54.0,-99.9,30.37,NE,48,16.0,18.0,-999,-99.99,,,-99.99,,2013-02-02 03:02:00,
2013-02-01 21:11:00,54.0,-99.9,30.37,NE,49,16.0,19.0,-999,-99.99,,,-99.99,,2013-02-02 03:11:00,
2013-02-01 21:22:00,54.0,-99.9,30.37,NE,52,18.0,19.0,-999,-99.99,,,-99.99,,2013-02-02 03:22:00,
2013-02-01 21:32:00,53.0,-99.9,30.37,NE,44,15.0,17.0,-999,-99.99,,,-99.99,,2013-02-02 03:32:00,
2013-02-01 21:42:00,53.0,-99.9,30.37,NE,42,14.0,16.0,-999,-99.99,,,-99.99,,2013-02-02 03:42:00,
2013-02-01 21:52:00,53.0,-99.9,30.38,NE,49,14.0,17.0,-999,-99.99,,,-99.99,,2013-02-02 03:52:00,
2013-02-01 22:02:00,53.0,-99.9,30.38,NE,42,15.0,18.0,-999,-99.99,,,-99.99,,2013-02-02 04:02:00,
2013-02-01 22:11:00,53.0,-99.9,30.38,NE,38,15.0,17.0,-999,-99.99,,,-99.99,,2013-02-02 04:11:00,
2013-02-01 22:22:00,52.0,-99.9,30.37,NE,46,15.0,17.0,-999,-99.99,,,-99.99,,2013-02-02 04:22:00,
2013-02-01 22:33:00,52.0,-99.9,30.38,NE,41,15.0,18.0,-999,-99.99,,,-99.99,,2013-02-02 04:33:00,
2013-02-01 22:42:00,52.0,-99.9,30.37,NE,48,15.0,17.0,-999,-99.99,,,-99.99,,2013-02-02 04:42:00,
2013-02-01 22:52:00,51.0,-99.9,30.37,NE,44,14.0,18.0,-999,-99.99,,,-99.99,,2013-02-02 04:52:00,
2013-02-01 23:03:00,51.0,-99.9,30.37,NE,48,15.0,17.0,-999,-99.99,,,-99.99,,2013-02-02 05:03:00,
2013-02-01 23:12:00,51.0,-99.9,30.37,NE,41,16.0,17.0,-999,-99.99,,,-99.99,,2013-02-02 05:12:00,
2013-02-01 23:22:00,51.0,-99.9,30.37,NE,43,15.0,17.0,-999,-99.99,,,-99.99,,2013-02-02 05:22:00,
2013-02-01 23:33:00,51.0,-99.9,30.37,NE,42,15.0,17.0,-999,-99.99,,,-99.99,,2013-02-02 05:33:00,
2013-02-01 23:42:00,51.0,-99.9,30.36,NE,46,16.0,17.0,-999,-99.99,,,-99.99,,2013-02-02 05:42:00,
2013-02-01 23:52:00,51.0,-99.9,30.36,NE,44,15.0,17.0,-999,-99.99,,,-99.99,,2013-02-02 05:52:00,